Zurück zum Katalog

FENGYUN 1C DEB

AktivSSO
NORAD 30206·DEBRIS·🇨🇳 China

Gestartet May 10, 1999 von Taiyuan Satellite Launch Center

Loading…

Nächste Überflüge (nächste 24 Stunden)

TLE

AktuellSource: Space-Track

Epoche: Sep 13, 2026, 22:22 UTC

1 30206U 99025VP  26256.93254244  .00000792  00000-0  19157-3 0  9994
2 30206  98.2422 255.0129 0141959 272.3856  86.1092 14.50015199 33878

Verfolge FENGYUN 1C DEB in Echtzeit mit AllMySat

Download on the App Store